Location: G�ppingen
(48.7000°N, 9.6670°E)
Time: 21:13:36
(UTC+02:00)

N. Korean satellite - Visible Passes

Search period start: 21 October 2017 00:00
Search period end: 30 October 2017 23:00
Orbit: 459 x 517 km, 97.2° (Epoch: 21 October)

Date Brightness Start Highest point End Pass type
(mag) Time Alt. Az. Time Alt. Az. Time Alt. Az.
21 Oct 7.3 19:33:00 10° S 19:36:27 55° W 19:39:53 10° NNW visible
22 Oct 6.4 19:09:36 10° SSE 19:13:06 74° ENE 19:16:35 10° N visible
23 Oct 7.0 18:46:34 10° SE 18:49:49 38° ENE 18:53:04 10° N visible
23 Oct 9.7 20:21:17 10° SW 20:23:31 16° W 20:25:45 10° NW visible
24 Oct 8.7 19:56:57 10° SSW 20:00:00 28° W 20:03:04 10° NW visible
25 Oct 9.8 07:20:36 10° NE 07:22:57 17° E 07:25:18 10° SE visible
25 Oct 7.3 19:33:09 10° S 19:36:34 54° W 19:39:59 10° NNW visible
26 Oct 6.4 19:09:44 10° SSE 19:13:12 75° ENE 19:16:40 10° N visible
27 Oct 6.9 18:46:39 10° SE 18:49:53 38° ENE 18:53:08 10° N visible
27 Oct 9.7 20:21:26 10° SW 20:23:36 16° W 20:25:47 10° NW visible
28 Oct 8.7 19:57:03 10° SSW 20:00:05 28° W 20:03:07 10° NW visible
29 Oct 9.8 06:20:37 10° NE 06:23:01 17° E 06:25:27 10° SE visible
29 Oct 7.3 18:33:13 10° S 18:36:37 54° W 18:40:01 10° NNW visible
30 Oct 6.3 18:09:47 10° SSE 18:13:14 76° ENE 18:16:42 10° N visible
